Weather History for Jackson, MN

Change the Weather History Date:

Monday, December 31, 2012

  Actual Average Record
Temperature  
Mean Temperature 10 °F -  
Max Temperature 21 °F 23 °F 46 °F (1999)
Min Temperature -2 °F 8 °F -11 °F (2008)
Degree Days  
Heating Degree Days 56    
Moisture  
Dew Point 5 °F    
Average Humidity 75    
Maximum Humidity 86    
Minimum Humidity 66    
Precipitation  
Precipitation 0.00 in - - ()
Sea Level Pressure  
Sea Level Pressure 30.15 in    
Wind  
Wind Speed 16 mph (NNW)    
Max Wind Speed 31 mph    
Max Gust Speed 39 mph    
Visibility 9 miles    
Events      
Averages and records for this station are not official NWS values.
T = Trace of Precipitation, MM = Missing Value Source: NWS Daily Summary

Daily Weather History Graph

Daily Weather History Graph

Search for Another Location

Airport:

Trip Planner

Search our weather history database for the weather conditions in past years. The results will help you decide how hot, cold, wet, or windy it might be!

Date:

Astronomy

Dec. 31, 2012 Rise Set
Actual Time 7:53 AM CST 4:53 PM CST
Civil Twilight 7:20 AM CST 5:25 PM CST
Nautical Twilight 6:44 AM CST 6:02 PM CST
Astronomical Twilight 6:09 AM CST 6:36 PM CST
Moon 8:31 PM CST (12/31) 9:29 AM CST (12/31)
Length of Visible Light 10h 05m
Length of Day
8h 59m
Waning Gibbous, 90% of the Moon is Illuminated
Dec 31
Waning Gibbous
Jan 4
Last Quarter
Jan 11
New
Jan 18
First Quarter
Jan 26
Full

Hourly Weather History & Observations

Time (CST) Temp. Windchill Dew Point Humidity Pressure Visibility Wind Dir Wind Speed Gust Speed Precip Events Conditions
12:11 AM 19.4 °F 1.8 °F 15.8 °F 86% 30.03 in 7.0 mi NNW 25.3 mph 31.1 mph N/A   Overcast
12:32 AM 19.4 °F 3.2 °F 15.8 °F 86% 30.03 in 7.0 mi NNW 20.7 mph 25.3 mph N/A   Overcast
12:53 AM 21.2 °F 5.2 °F 17.6 °F 86% 30.03 in 10.0 mi NNW 21.9 mph 28.8 mph N/A   Overcast
1:13 AM 21.2 °F 5.2 °F 17.6 °F 86% 30.04 in 10.0 mi NW 21.9 mph 28.8 mph N/A   Overcast
1:31 AM 21.2 °F 4.9 °F 15.8 °F 80% 30.04 in 10.0 mi NNW 23.0 mph 31.1 mph N/A   Overcast
1:53 AM 21.2 °F 3.0 °F 15.8 °F 80% 30.04 in 4.0 mi NW 29.9 mph 34.5 mph N/A   Haze
2:13 AM 19.4 °F 0.2 °F 14.0 °F 80% 30.06 in 3.0 mi NNW 31.1 mph 39.1 mph N/A   Haze
2:33 AM 19.4 °F 1.8 °F 14.0 °F 80% 30.08 in 4.0 mi NNW 25.3 mph 33.4 mph N/A   Haze
2:53 AM 19.4 °F 4.5 °F 14.0 °F 80% 30.10 in 4.0 mi NNW 17.3 mph 29.9 mph N/A   Overcast
3:13 AM 19.4 °F 2.8 °F 14.0 °F 80% 30.10 in 5.0 mi NNW 21.9 mph 31.1 mph N/A   Haze
3:33 AM 19.4 °F 3.6 °F 14.0 °F 80% 30.09 in 7.0 mi NNW 19.6 mph 29.9 mph N/A   Overcast
3:53 AM 19.4 °F 3.6 °F 14.0 °F 80% 30.11 in 7.0 mi NNW 19.6 mph 31.1 mph N/A   Overcast
4:13 AM 19.4 °F 4.5 °F 14.0 °F 80% 30.10 in 10.0 mi NNW 17.3 mph - N/A   Scattered Clouds
4:33 AM 17.6 °F 3.2 °F 12.2 °F 79% 30.10 in 10.0 mi NNW 15.0 mph - N/A   Clear
4:53 AM 17.6 °F 3.2 °F 12.2 °F 79% 30.10 in 10.0 mi NNW 15.0 mph - N/A   Clear
5:13 AM 17.6 °F 2.7 °F 12.2 °F 79% 30.11 in 10.0 mi NNW 16.1 mph - N/A   Clear
5:33 AM 17.6 °F 2.7 °F 10.4 °F 73% 30.11 in 10.0 mi NNW 16.1 mph 24.2 mph N/A   Clear
5:53 AM 15.8 °F -0.6 °F 10.4 °F 79% 30.11 in 10.0 mi NNW 18.4 mph - N/A   Clear
6:13 AM 14.0 °F -0.8 °F 10.4 °F 86% 30.12 in 10.0 mi NNW 13.8 mph - N/A   Clear
6:33 AM 14.0 °F 0.5 °F 10.4 °F 86% 30.12 in 10.0 mi NNW 11.5 mph - N/A   Clear
6:53 AM 14.0 °F 1.2 °F 10.4 °F 86% 30.12 in 10.0 mi NNW 10.4 mph - N/A   Clear
7:13 AM 14.0 °F 1.2 °F 10.4 °F 86% 30.13 in 10.0 mi NNW 10.4 mph - N/A   Clear
7:33 AM 14.0 °F 2.0 °F 8.6 °F 79% 30.13 in 10.0 mi NNW 9.2 mph - N/A   Clear
7:53 AM 14.0 °F 2.9 °F 8.6 °F 79% 30.14 in 10.0 mi NNW 8.1 mph - N/A   Clear
8:13 AM 12.2 °F 1.7 °F 8.6 °F 85% 30.15 in 10.0 mi NNW 6.9 mph - N/A   Clear
8:33 AM 12.2 °F -0.2 °F 8.6 °F 85% 30.14 in 10.0 mi North 9.2 mph - N/A   Clear
8:53 AM 12.2 °F -0.2 °F 6.8 °F 79% 30.15 in 10.0 mi NNW 9.2 mph - N/A   Clear
9:13 AM 12.2 °F 0.7 °F 5.0 °F 73% 30.16 in 10.0 mi North 8.1 mph - N/A   Scattered Clouds
9:33 AM 12.2 °F -0.2 °F 5.0 °F 73% 30.15 in 10.0 mi North 9.2 mph 17.3 mph N/A   Mostly Cloudy
9:52 AM 12.2 °F -1.0 °F 5.0 °F 73% 30.17 in 10.0 mi NNW 10.4 mph 18.4 mph N/A   Scattered Clouds
10:13 AM 12.2 °F -2.5 °F 5.0 °F 73% 30.17 in 10.0 mi NNW 12.7 mph 20.7 mph N/A   Scattered Clouds
10:33 AM 12.2 °F -0.2 °F 5.0 °F 73% 30.18 in 10.0 mi North 9.2 mph 18.4 mph N/A   Mostly Cloudy
10:52 AM 12.2 °F -0.2 °F 5.0 °F 73% 30.19 in 10.0 mi NNW 9.2 mph 17.3 mph N/A   Mostly Cloudy
11:13 AM 12.2 °F 0.7 °F 5.0 °F 73% 30.18 in 7.0 mi North 8.1 mph - N/A   Overcast
11:33 AM 12.2 °F -1.0 °F 5.0 °F 73% 30.18 in 7.0 mi NNW 10.4 mph 16.1 mph N/A   Overcast
11:52 AM 12.2 °F -0.2 °F 5.0 °F 73% 30.18 in 10.0 mi North 9.2 mph - N/A   Overcast
12:13 PM 12.2 °F -1.8 °F 5.0 °F 73% 30.17 in 10.0 mi NNW 11.5 mph 16.1 mph N/A   Overcast
12:32 PM 12.2 °F -1.8 °F 5.0 °F 73% 30.17 in 10.0 mi NNW 11.5 mph 23.0 mph N/A   Mostly Cloudy
12:53 PM 12.2 °F -1.8 °F 5.0 °F 73% 30.15 in 10.0 mi NNW 11.5 mph 17.3 mph N/A   Scattered Clouds
1:13 PM 12.2 °F -1.0 °F 5.0 °F 73% 30.15 in 10.0 mi North 10.4 mph 16.1 mph N/A   Scattered Clouds
1:32 PM 12.2 °F -2.5 °F 3.2 °F 67% 30.15 in 10.0 mi NNW 12.7 mph 20.7 mph N/A   Clear
1:53 PM 12.2 °F -1.8 °F 3.2 °F 67% 30.15 in 10.0 mi NNW 11.5 mph - N/A   Clear
2:13 PM 12.2 °F -0.2 °F 3.2 °F 67% 30.16 in 10.0 mi NNW 9.2 mph - N/A   Clear
2:32 PM 12.2 °F -3.1 °F 3.2 °F 67% 30.17 in 10.0 mi NNW 13.8 mph - N/A   Clear
2:53 PM 10.4 °F -3.3 °F 3.2 °F 73% 30.16 in 10.0 mi NNW 10.4 mph 16.1 mph N/A   Clear
3:13 PM 10.4 °F -3.3 °F 1.4 °F 67% 30.16 in 10.0 mi NNW 10.4 mph - N/A   Clear
3:33 PM 10.4 °F -4.8 °F 1.4 °F 67% 30.16 in 10.0 mi NNW 12.7 mph 18.4 mph N/A   Clear
3:53 PM 10.4 °F -4.8 °F 1.4 °F 67% 30.16 in 10.0 mi NNW 12.7 mph - N/A   Clear
4:13 PM 8.6 °F -6.3 °F 1.4 °F 73% 30.16 in 10.0 mi NNW 11.5 mph - N/A   Clear
4:33 PM 8.6 °F -6.3 °F -0.4 °F 67% 30.16 in 10.0 mi NNW 11.5 mph - N/A   Clear
4:53 PM 8.6 °F -5.5 °F -0.4 °F 67% 30.17 in 10.0 mi NNW 10.4 mph - N/A   Clear
5:13 PM 6.8 °F -9.3 °F -2.2 °F 67% 30.17 in 10.0 mi NNW 12.7 mph - N/A   Clear
5:33 PM 5.0 °F -10.8 °F -2.2 °F 72% 30.17 in 10.0 mi NNW 11.5 mph - N/A   Clear
5:53 PM 5.0 °F -9.1 °F -4.0 °F 66% 30.17 in 10.0 mi NNW 9.2 mph - N/A   Clear
5:59 PM 5.0 °F -9.1 °F -4.0 °F 66% 30.17 in 10.0 mi NNW 9.2 mph - N/A   Clear
6:33 PM 3.2 °F -13.1 °F -4.0 °F 72% 30.18 in 10.0 mi NNW 11.5 mph - N/A   Clear
6:53 PM 3.2 °F -12.2 °F -4.0 °F 72% 30.19 in 10.0 mi NW 10.4 mph - N/A   Clear
7:13 PM 1.4 °F -13.5 °F -5.8 °F 72% 30.19 in 10.0 mi NNW 9.2 mph - N/A   Clear
7:33 PM 1.4 °F -15.3 °F -5.8 °F 72% 30.19 in 10.0 mi NNW 11.5 mph - N/A   Clear
7:53 PM 3.2 °F -13.1 °F -5.8 °F 66% 30.19 in 10.0 mi NNW 11.5 mph - N/A   Clear
8:33 PM 1.4 °F -13.5 °F -5.8 °F 72% 30.19 in 10.0 mi NW 9.2 mph - N/A   Clear
8:53 PM 1.4 °F -12.5 °F -5.8 °F 72% 30.19 in 10.0 mi NW 8.1 mph - N/A   Clear
9:13 PM -0.4 °F -12.0 °F -5.8 °F 78% 30.19 in 10.0 mi NW 5.8 mph - N/A   Clear
9:33 PM -0.4 °F -8.3 °F -7.6 °F 72% 30.19 in 10.0 mi WNW 3.5 mph - N/A   Clear
9:53 PM -0.4 °F -12.0 °F -5.8 °F 78% 30.20 in 10.0 mi NNW 5.8 mph - N/A   Clear
10:13 PM -0.4 °F -8.3 °F -7.6 °F 72% 30.20 in 10.0 mi NNW 3.5 mph - N/A   Clear
10:33 PM -2.2 °F -15.6 °F -7.6 °F 78% 30.21 in 10.0 mi NNW 6.9 mph - N/A   Clear
11:13 PM -0.4 °F - -7.6 °F 72% 30.22 in 10.0 mi Calm Calm - N/A   Clear
11:33 PM -0.4 °F - -7.6 °F 72% 30.23 in 10.0 mi Calm Calm - N/A   Clear
11:53 PM -2.2 °F -10.4 °F -7.6 °F 78% 30.22 in 10.0 mi NW 3.5 mph - N/A   Clear